Theta_e
316 317 318 317 317 317 318 318 317 318 318 319 319 319 320 320 320 320 321 321 322 323 323 324 325 325 325 326 326 325 321 319 315 314 314 315 325 334 335 338 337 337 327 311 308 309 308 309 308 307 311 311 308 310 307 308 306 311 304 302 299 302 299 303 301 302 302 302 302 299 301 303 301 301 303 303 303 303 303 303 305 303 304 306 306 308 308 319
316 317 317 317 317 317 317 317 317 316 317 318 318 318 319 319 320 320 320 321 322 322 323 324 324 325 325 325 325 323 320 318 312 312 313 324 329 332 335 336 336 334 326 312 310 309 307 307 306 308 309 306 309 306 307 307 307 307 303 302 299 301 303 304 304 304 301 303 303 302 301 302 303 303 303 302 303 302 302 304 304 304 306 305 305 308 309 319
316 316 317 317 317 316 316 316 316 315 316 317 317 317 318 318 319 319 320 321 321 322 323 324 324 325 325 325 323 321 319 313 310 307 310 323 330 333 334 335 336 328 313 312 310 310 308 308 308 308 307 305 306 305 308 304 307 301 305 299 300 306 303 301 302 303 301 301 301 300 300 300 302 303 304 301 303 301 302 303 303 304 305 305 305 308 311 318
316 316 317 316 315 315 315 316 315 315 315 316 316 317 317 318 318 319 319 320 321 322 323 323 324 325 324 324 322 319 317 312 304 308 314 325 331 334 334 334 333 321 313 310 308 309 307 307 306 308 307 305 304 304 304 303 305 302 301 299 302 300 302 301 300 301 300 299 302 302 299 300 301 303 303 303 301 302 304 306 306 305 307 307 307 308 313 316
316 316 315 314 314 314 315 315 315 314 315 315 316 316 316 317 318 318 319 320 321 322 322 323 324 325 324 324 317 319 317 300 302 307 318 327 331 333 332 329 323 313 313 307 308 306 308 308 307 307 307 302 304 304 302 302 302 304 301 300 299 299 302 300 301 299 299 297 301 300 300 301 302 301 302 303 301 302 305 307 308 308 307 307 307 308 313 315
315 315 314 314 314 314 314 314 314 315 315 315 316 316 317 316 317 318 319 319 321 322 322 323 324 324 324 322 319 315 309 293 304 314 324 326 329 329 327 325 316 308 310 309 308 307 308 307 307 305 303 303 301 301 301 301 301 300 300 299 300 299 301 300 299 298 297 300 301 300 302 302 302 302 302 302 303 305 304 304 305 305 304 305 310 309 312 315
315 314 314 313 314 314 315 315 315 315 316 316 316 317 317 317 317 318 318 319 320 321 322 323 323 324 323 319 314 312 305 304 310 317 323 325 326 321 324 318 313 309 310 311 308 308 306 306 306 303 302 301 299 301 300 301 300 303 300 300 300 298 300 298 299 295 297 299 300 301 301 301 300 300 300 300 305 307 304 302 304 304 303 303 307 308 310 314
314 314 313 312 313 314 314 314 315 315 315 316 316 316 317 317 317 317 318 319 320 321 322 323 323 323 321 319 315 305 306 304 313 316 320 321 315 310 321 314 310 316 311 307 308 307 306 305 304 302 303 301 301 302 300 301 302 302 300 300 299 298 299 298 297 297 297 298 299 299 300 300 300 301 298 301 305 307 305 303 304 304 303 302 306 308 309 311
314 313 313 312 312 313 314 313 314 315 315 316 316 316 317 317 317 317 318 319 319 321 322 323 322 322 316 312 307 302 302 309 314 318 319 314 311 310 317 315 311 312 309 308 305 308 308 303 303 304 300 300 301 301 299 301 299 302 301 301 300 300 300 298 299 298 298 300 299 300 301 300 300 299 299 304 306 304 303 302 304 304 304 304 305 307 309 309
314 313 313 312 313 313 313 313 314 315 315 316 316 317 317 318 318 318 318 318 319 320 321 322 321 318 309 314 305 298 304 315 319 318 313 310 308 312 315 313 311 311 311 307 308 308 307 305 306 305 306 301 302 300 298 302 299 301 300 301 301 299 300 299 300 300 299 301 299 301 301 300 299 299 301 304 302 300 302 304 303 303 305 306 306 307 308 309
315 314 314 313 313 313 314 314 314 315 316 316 317 317 317 317 317 317 318 318 319 320 321 322 321 314 313 306 301 298 309 320 318 315 311 309 312 314 314 315 310 311 310 309 309 307 305 307 307 305 307 302 303 300 301 300 300 300 300 300 301 300 300 300 300 300 301 301 299 301 300 299 299 300 301 304 301 301 302 304 304 304 305 306 306 306 307 307
315 315 315 314 314 314 314 315 315 315 315 316 317 317 317 317 318 318 318 318 319 320 321 321 319 309 307 305 302 303 303 316 315 312 313 314 314 313 313 309 309 317 312 308 309 310 310 307 307 304 301 304 300 301 300 300 301 299 300 300 300 301 301 300 300 300 298 301 299 300 300 299 298 299 304 301 301 301 302 303 304 304 305 306 306 305 306 307
316 316 315 315 314 315 315 315 315 315 316 316 316 316 317 317 318 319 319 319 319 320 321 321 318 312 308 300 302 309 310 314 315 311 312 313 311 310 310 310 311 310 314 310 309 311 307 308 310 304 303 304 301 300 301 302 298 300 302 300 299 300 299 299 299 299 299 300 298 300 295 299 302 303 304 300 301 301 302 303 305 305 305 305 305 305 306 307
317 317 316 316 315 315 316 315 316 316 316 316 316 316 317 317 318 319 320 319 321 321 321 319 316 308 304 301 309 312 312 316 313 313 313 313 311 313 313 313 312 312 315 310 309 307 309 307 309 304 306 303 301 303 302 302 301 300 298 300 299 297 297 299 299 298 299 299 298 300 295 299 302 304 301 300 299 300 302 304 305 305 305 305 305 305 306 307
317 317 317 316 316 316 316 317 316 316 316 316 316 317 317 317 318 319 320 321 321 321 320 317 312 306 301 300 305 312 318 315 313 313 312 310 311 310 309 311 309 308 308 310 310 306 306 311 310 305 302 300 303 302 300 300 299 298 296 295 297 295 298 298 298 298 299 298 299 300 296 298 302 304 300 298 298 299 301 303 304 304 304 304 304 304 305 306
318 317 317 317 317 317 317 317 316 316 316 316 316 317 317 318 318 319 320 321 321 318 317 319 311 308 300 297 309 321 313 311 311 313 312 310 314 311 312 309 311 309 309 307 307 307 310 310 302 300 302 301 302 301 299 298 299 298 297 296 294 295 297 297 297 297 296 297 299 299 297 299 301 302 299 298 299 299 300 302 304 304 304 304 304 304 304 305
318 317 317 318 317 317 317 317 317 317 317 316 317 317 318 318 319 319 319 317 314 312 316 307 304 304 297 302 309 304 307 311 310 313 311 308 311 311 311 311 307 308 310 309 312 312 308 307 300 302 303 301 300 302 296 295 295 296 296 295 297 294 296 294 297 297 298 297 298 299 296 299 302 302 301 297 300 299 301 303 304 305 304 304 304 304 304 304
318 318 318 317 318 318 318 317 317 316 317 316 316 317 318 319 318 317 319 315 313 314 309 308 310 305 297 300 300 302 306 310 313 309 309 308 309 309 310 307 304 309 311 308 309 306 306 303 304 301 301 300 300 299 293 291 294 295 295 294 294 292 294 295 296 296 296 296 296 298 297 298 301 303 304 305 300 300 301 302 304 305 305 305 305 304 304 305
319 318 318 318 318 318 318 318 317 317 316 316 315 316 318 315 316 317 311 309 301 300 297 300 298 294 294 298 304 307 309 309 310 310 309 311 309 308 309 309 311 306 305 303 302 304 305 304 305 300 297 297 298 298 296 296 296 295 296 295 295 293 295 294 297 296 296 297 296 297 297 299 301 302 304 305 302 300 301 303 303 303 303 303 304 305 305 306
319 319 319 318 318 318 318 318 317 316 315 316 315 309 308 305 306 302 306 305 300 298 299 301 300 300 301 300 308 309 310 310 308 309 311 309 311 310 306 307 310 307 302 300 302 301 302 299 297 296 298 299 300 299 297 295 297 297 297 297 294 294 296 296 295 296 295 296 297 299 299 299 300 301 303 304 304 301 300 300 302 303 304 304 305 305 306 306
320 319 319 318 318 318 318 318 317 316 312 315 310 301 297 299 294 292 297 301 303 298 302 300 301 301 302 304 308 308 306 305 308 310 311 311 308 308 303 305 303 300 300 296 301 300 301 298 297 300 298 299 298 296 296 295 296 296 296 295 295 295 294 296 296 295 297 295 297 296 296 298 299 301 303 304 302 301 302 302 303 303 304 305 306 306 307 307
320 320 319 319 318 318 318 318 317 314 311 313 308 299 305 299 301 302 301 296 300 303 303 304 301 303 304 305 308 308 308 305 306 309 312 309 306 303 302 302 299 297 299 299 300 298 298 295 298 298 296 296 295 296 297 297 296 296 296 296 294 296 297 295 293 295 296 295 295 297 295 297 300 301 303 303 302 303 304 304 304 304 305 306 306 307 307 307
320 320 320 319 318 319 319 318 317 314 314 310 307 304 307 311 309 308 304 301 300 299 303 302 300 301 302 304 306 305 304 300 300 306 309 309 303 304 302 300 299 298 297 299 296 296 293 297 299 296 297 296 294 294 296 296 297 296 295 293 293 296 293 292 295 294 294 295 296 296 294 296 300 302 302 304 303 304 305 305 305 305 304 305 306 307 307 307
320 320 320 319 319 319 319 317 317 313 309 308 307 308 310 311 309 305 304 296 295 298 302 302 301 301 301 300 306 306 303 301 300 303 309 306 303 303 302 300 297 297 296 298 297 296 295 296 293 295 297 298 295 294 295 295 294 297 297 296 295 294 295 293 293 294 293 295 293 294 294 296 300 300 301 304 302 300 301 302 302 303 305 305 306 306 306 305
320 319 320 319 318 319 318 317 312 309 308 307 308 311 308 310 310 307 301 294 294 296 301 300 303 303 302 309 308 304 302 300 302 305 310 308 300 300 300 298 299 296 298 297 295 296 296 295 296 295 295 296 296 293 296 297 294 295 297 297 297 297 295 293 295 295 295 295 294 294 290 293 297 297 297 301 302 301 302 301 303 305 305 305 304 304 306 307
320 319 319 319 319 319 318 311 311 310 307 309 313 309 308 309 310 307 300 290 289 295 297 295 305 299 311 303 307 306 301 297 302 303 307 309 309 303 298 298 298 296 295 296 296 298 296 293 298 296 295 296 296 296 297 298 295 293 294 297 298 296 295 295 294 294 291 289 294 293 289 287 296 296 298 301 300 301 303 303 303 304 305 305 306 306 306 307
319 319 319 319 319 318 311 310 313 310 307 308 310 310 308 310 310 308 295 289 285 297 294 299 297 299 308 303 305 299 290 294 305 307 306 308 304 307 299 297 296 296 297 299 294 293 295 293 294 296 296 296 295 293 296 296 295 292 294 293 295 295 294 295 294 295 293 295 296 292 294 288 289 295 300 301 299 299 300 302 304 304 305 305 305 306 307 307
318 319 319 319 319 317 313 312 310 309 309 310 310 311 312 312 310 304 295 280 281 301 295 294 300 307 305 302 304 295 295 299 297 301 304 307 305 302 299 297 297 297 295 296 289 297 296 294 294 294 295 295 295 297 299 298 296 294 292 295 295 296 297 295 295 294 293 290 290 291 295 288 289 295 296 295 296 298 299 301 304 305 306 305 306 306 307 307
318 318 318 319 318 317 314 312 312 311 312 311 311 311 311 310 304 299 290 280 296 293 310 295 308 304 301 301 298 296 297 299 296 300 306 305 306 302 297 298 297 298 296 296 294 294 293 297 297 299 296 294 296 291 294 298 295 292 293 295 294 295 295 296 294 294 292 290 287 290 293 287 288 296 296 296 295 296 298 302 303 305 305 306 306 306 306 304
318 318 318 318 317 315 314 314 312 311 311 311 312 312 312 307 299 292 284 278 300 289 296 297 298 294 299 295 294 296 296 297 298 301 302 301 303 303 297 300 298 297 296 296 296 295 293 295 296 297 296 298 293 292 292 296 295 295 297 297 296 295 295 294 295 293 291 285 289 291 293 291 285 294 295 294 297 299 301 302 303 303 305 306 304 305 306 304
316 317 317 318 313 314 314 310 313 311 311 311 312 313 310 302 292 287 280 290 297 295 295 295 292 298 295 293 291 292 295 294 298 300 298 301 299 299 298 297 301 298 294 294 294 295 295 295 296 297 294 294 297 294 294 293 295 298 297 296 295 293 293 293 291 291 286 284 289 291 293 293 284 291 296 299 297 297 299 300 302 303 304 308 305 304 303 303
315 317 317 317 317 316 312 310 313 311 312 313 312 305 302 289 291 283 284 299 289 293 294 292 293 295 294 297 296 293 293 296 298 298 297 297 296 295 295 293 295 289 288 290 290 293 292 294 296 295 296 296 298 296 294 295 295 297 297 295 288 286 286 284 287 283 284 284 287 288 289 288 288 292 297 298 300 301 301 301 302 303 304 306 305 305 304 304
316 316 316 318 315 314 314 314 311 311 312 311 305 302 291 285 279 288 290 294 290 296 291 297 294 293 295 293 293 293 295 293 296 297 298 297 297 297 299 297 299 295 287 292 291 289 292 295 293 296 295 296 300 293 291 290 294 295 294 292 287 283 282 279 284 282 282 285 285 287 291 286 293 295 299 298 301 303 303 303 304 303 303 304 305 306 304 305
315 316 316 315 316 317 314 312 312 313 309 305 298 294 290 283 283 295 293 295 294 292 295 294 292 294 294 291 293 294 291 293 295 295 297 295 295 294 295 297 295 294 293 290 289 289 285 285 291 293 292 299 297 297 297 295 294 294 300 295 290 288 284 279 282 280 283 284 284 286 286 286 287 293 297 298 301 301 300 300 303 303 303 304 303 303 303 303
314 316 317 316 315 315 313 313 313 313 307 301 295 289 284 284 289 288 291 294 292 294 293 294 294 292 291 291 291 294 295 291 295 294 294 294 291 293 294 294 296 296 296 289 292 290 289 290 293 298 296 298 296 299 301 298 295 296 296 296 290 288 293 284 286 285 283 284 283 282 285 292 293 298 299 301 300 299 299 299 298 299 301 302 302 303 303 303
313 312 315 312 313 313 314 314 314 313 305 298 289 284 284 288 286 295 294 299 294 294 292 294 294 291 291 291 291 292 295 293 292 294 292 294 296 293 298 297 296 296 293 289 293 286 287 287 291 295 295 297 297 297 298 299 287 293 293 289 292 296 294 285 282 282 281 283 282 289 287 291 296 296 298 299 300 301 301 300 300 301 302 301 301 304 303 303
309 312 307 310 312 315 314 314 313 310 305 297 288 284 287 288 294 296 299 295 296 296 293 289 289 290 289 288 291 290 292 296 293 293 290 294 291 294 294 296 300 297 297 296 291 297 288 289 289 292 291 294 292 294 299 296 297 293 288 293 294 297 297 290 284 283 283 281 283 285 284 287 289 286 296 296 297 299 300 301 302 303 303 302 304 305 304 304
307 306 307 308 313 316 316 315 313 308 302 295 287 290 292 288 296 298 298 295 294 296 293 292 292 295 289 290 289 290 293 291 291 292 291 292 290 301 295 295 298 298 298 299 293 294 294 287 290 288 290 294 294 297 296 297 296 295 293 302 292 286 285 290 287 279 280 279 282 286 287 287 290 290 295 295 295 297 299 301 301 301 303 304 304 305 305 304
306 305 298 306 315 316 315 315 310 304 297 290 288 288 293 294 301 298 298 300 299 297 291 294 292 293 294 290 291 290 292 288 292 290 289 291 288 297 296 298 296 298 299 298 293 294 295 287 288 289 291 293 295 295 288 292 296 296 296 293 296 292 290 287 287 287 286 282 280 283 285 284 294 293 296 296 297 299 300 301 301 302 303 304 305 307 306 305
301 297 295 308 316 316 315 312 305 299 294 287 290 291 299 293 297 300 300 299 297 296 293 293 295 291 292 292 292 289 292 292 292 292 292 294 291 296 295 299 297 296 298 299 295 299 291 292 285 290 292 293 288 292 291 293 289 290 292 291 291 290 293 292 290 286 285 283 282 282 281 287 294 298 297 297 299 300 300 302 305 304 304 305 306 306 306 304
304 297 298 311 314 316 313 306 298 292 291 295 296 296 295 294 296 298 300 300 300 300 298 296 294 291 293 291 289 294 291 291 292 291 291 292 292 290 297 298 298 294 297 297 296 296 289 289 286 289 288 288 292 297 296 297 296 293 292 290 292 288 287 283 282 289 284 285 282 281 281 288 297 295 299 299 301 302 303 303 304 305 305 305 304 302 301 303
297 287 293 311 314 313 306 294 293 298 294 292 292 296 294 298 296 297 298 300 298 299 300 298 296 296 295 293 295 292 292 290 291 291 293 291 295 294 296 297 298 298 295 292 293 298 296 294 290 287 289 291 293 293 291 291 295 296 295 294 296 294 292 288 282 284 284 285 284 285 283 287 299 298 299 300 301 300 301 302 302 305 306 304 303 301 300 301
294 291 305 309 313 309 301 293 296 294 292 296 300 298 300 296 297 298 296 298 296 298 297 296 296 295 296 295 294 293 293 289 292 290 294 294 295 297 297 296 298 299 300 295 296 296 294 289 286 288 293 294 293 292 292 292 294 293 294 293 292 291 292 291 289 288 287 286 284 285 281 287 297 295 297 297 297 295 296 296 300 301 301 302 303 302 301 300
294 293 299 306 310 308 298 287 287 290 293 297 296 296 300 298 297 294 295 296 296 295 295 295 295 297 295 297 296 292 296 287 294 293 292 296 294 300 297 298 299 297 297 295 293 298 289 288 289 285 285 287 289 293 292 293 293 291 292 294 294 295 295 291 287 289 286 287 287 286 281 287 298 293 294 294 295 295 298 298 297 299 302 303 303 302 300 300
294 297 297 299 304 303 292 295 292 291 292 292 293 292 294 296 298 298 297 295 298 296 296 295 297 298 296 297 295 296 296 293 289 295 295 294 295 295 297 299 299 298 300 302 297 300 291 290 288 282 280 279 279 280 283 286 288 291 292 293 294 293 293 288 286 287 284 288 288 285 286 292 297 297 297 296 296 297 298 299 297 298 301 302 303 303 301 300
289 281 291 295 298 292 293 294 295 294 291 291 290 292 294 292 296 299 299 297 298 298 297 298 298 298 296 295 293 293 293 297 293 289 292 292 296 296 295 297 298 299 298 296 297 298 288 290 290 289 287 285 288 290 293 295 291 287 289 290 292 294 294 292 291 287 284 287 287 289 290 291 293 296 297 298 294 296 299 300 299 299 298 299 299 300 300 300
296 285 288 283 293 291 290 294 291 293 290 294 288 292 290 292 294 294 300 294 298 297 297 297 295 293 293 294 293 293 295 294 295 294 292 294 295 296 295 295 296 296 295 295 297 293 287 288 291 292 292 292 294 294 294 295 290 292 290 290 293 291 290 289 288 286 292 288 284 291 293 289 291 295 297 298 297 298 299 300 301 300 301 302 302 300 296 296
284 289 292 293 286 283 285 286 290 290 293 294 291 293 290 290 291 289 295 297 299 299 294 296 296 295 295 294 294 290 292 292 294 290 294 294 295 295 295 295 294 294 295 295 297 293 288 287 291 292 289 292 294 294 295 294 295 294 293 293 291 292 290 286 288 292 293 288 286 292 294 291 293 296 298 299 300 299 300 301 302 301 300 299 299 298 299 299
293 292 291 294 287 289 288 290 291 290 289 290 290 292 290 290 289 292 293 293 295 294 296 289 292 294 295 296 295 291 292 288 288 293 291 290 291 293 290 293 295 294 295 291 293 292 290 287 290 291 289 291 291 292 293 292 291 291 292 294 294 292 291 291 291 293 293 291 293 294 294 294 296 298 299 301 302 302 302 303 300 299 300 302 302 302 302 303
287 287 286 291 291 289 287 289 289 289 287 290 286 288 290 290 290 293 295 294 290 292 297 292 293 295 296 296 295 292 293 294 294 290 294 293 289 292 291 293 289 289 292 290 292 292 292 287 291 290 287 287 290 292 292 291 291 289 292 292 292 293 292 293 292 293 294 293 294 294 293 293 298 301 301 302 303 303 302 300 300 301 302 302 302 303 304 304
296 295 295 288 285 287 288 288 288 287 286 288 286 288 289 290 290 294 293 297 294 292 294 292 295 295 296 295 295 294 297 297 297 296 297 296 291 295 293 290 296 289 288 288 288 289 291 288 292 289 285 285 289 289 289 290 289 288 288 290 291 290 288 290 290 294 292 290 292 292 290 291 297 301 302 302 302 299 299 300 301 302 303 302 303 303 304 305
296 296 296 293 285 288 286 288 288 288 283 288 288 288 288 289 292 293 289 294 295 297 297 296 296 295 293 293 292 295 299 299 299 300 300 300 300 299 299 298 298 295 288 289 289 287 290 289 288 288 284 285 289 290 288 288 286 283 284 289 292 292 293 294 295 295 294 295 291 288 290 296 299 300 299 300 301 300 300 300 301 302 303 303 303 304 304 305
Wind_Speed
7 7 7 6 6 6 6 5 4 4 2 3 2 3 3 3 4 4 4 5 5 5 6 7 7 8 8 9 10 9 8 3 3 1 3 2 3 7 8 7 8 9 1 2 3 5 2 2 3 2 1 1 3 1 1 2 2 2 4 3 5 1 6 6 8 9 4 2 7 8 8 7 6 4 3 2 4 3 2 5 2 1 5 1 3 2 3 8
7 7 7 7 7 6 5 5 4 3 2 2 2 2 3 4 3 4 4 5 5 6 7 7 7 7 8 8 9 8 4 3 7 7 4 3 6 8 8 7 7 7 2 3 5 5 4 3 3 2 3 2 2 2 2 2 3 1 2 3 5 4 1 3 3 6 1 0 5 6 5 5 3 7 5 6 6 5 6 6 5 6 6 6 4 5 7 10
7 7 7 7 7 5 4 4 3 1 2 2 2 2 2 3 3 4 5 5 5 6 7 7 8 8 8 8 7 5 3 3 3 4 1 4 8 8 7 7 7 4 2 3 1 2 3 4 5 4 3 4 4 3 1 3 3 2 3 5 4 1 2 2 3 6 2 2 6 7 5 4 2 3 5 6 3 3 9 7 5 8 10 11 9 7 9 11
7 7 6 6 5 4 3 4 3 1 1 2 2 1 2 2 4 4 5 6 6 7 7 8 8 8 7 8 6 3 2 4 2 1 2 6 8 8 8 8 6 2 2 5 1 3 4 7 4 1 3 3 2 2 2 3 3 2 3 4 1 2 3 3 4 1 1 3 3 5 4 5 3 3 5 3 5 9 9 10 9 9 10 9 10 10 10 12
6 6 5 5 4 3 3 3 3 2 1 0 1 1 2 3 4 5 5 6 7 7 8 9 9 9 8 8 5 3 1 3 3 1 3 7 9 8 7 5 5 2 2 5 5 5 2 2 2 3 1 4 1 2 3 1 3 3 3 4 1 1 1 3 1 3 1 3 2 4 8 6 4 1 7 6 9 6 5 5 9 9 4 8 11 12 11 12
7 6 6 5 5 4 4 3 2 3 2 1 1 1 1 3 4 5 6 6 7 8 8 9 9 10 9 6 2 2 2 3 1 1 4 8 8 7 4 2 2 2 3 2 1 1 3 3 3 3 2 3 1 3 2 1 3 3 1 1 0 3 2 2 0 0 2 2 5 5 2 5 7 4 3 6 14 1 5 5 4 4 3 3 7 12 12 13
8 7 6 5 5 5 4 4 2 1 1 1 2 3 3 3 4 5 6 7 7 8 8 9 10 9 10 2 2 1 1 2 1 1 4 8 7 4 2 2 2 1 3 2 1 2 1 4 1 3 4 4 1 4 1 1 1 3 4 3 2 0 3 2 1 1 2 2 2 2 2 5 5 9 2 8 14 7 4 3 2 2 2 3 8 12 14 15
8 7 6 6 5 5 4 3 2 1 0 1 2 3 4 4 4 5 6 7 8 8 9 9 9 10 7 2 2 2 1 2 2 1 4 6 4 4 4 1 2 1 6 4 1 4 2 3 6 3 3 2 4 3 1 3 1 3 5 3 3 1 2 1 1 3 1 2 2 1 5 2 2 2 2 10 13 10 4 2 1 1 3 5 7 11 12 12
7 8 7 6 6 5 4 3 3 2 2 0 2 4 4 5 5 5 6 7 8 8 9 9 9 10 2 3 2 4 3 2 1 3 5 4 3 2 3 2 5 4 4 2 3 1 4 1 2 4 3 5 2 6 1 3 4 2 4 4 4 2 3 2 3 1 1 1 2 4 4 1 0 2 8 17 8 2 2 3 3 2 4 7 9 10 11 12
8 7 7 6 6 6 4 4 3 3 2 3 3 4 4 5 6 6 6 7 7 8 9 9 10 8 1 2 2 5 2 3 2 3 4 4 2 1 7 3 1 4 2 3 2 2 1 5 1 5 10 7 2 3 2 3 2 2 5 4 4 3 1 2 2 3 0 1 2 4 4 2 1 2 8 3 4 4 2 4 3 4 8 8 6 6 8 10
9 8 7 7 6 6 5 4 4 4 3 3 4 4 5 6 7 6 6 7 7 7 8 8 10 4 1 1 5 3 1 1 2 4 4 4 1 3 4 3 2 2 8 4 4 2 3 5 3 4 2 3 6 3 2 3 1 4 4 4 6 4 3 2 0 2 2 3 2 3 3 1 1 2 12 3 2 3 2 5 5 6 7 6 6 6 6 7
10 9 7 6 6 6 5 4 5 3 4 4 5 4 5 6 7 6 6 7 7 7 8 7 7 2 1 1 2 2 1 2 3 3 2 3 5 2 1 2 3 2 2 5 3 2 2 5 3 1 2 4 4 4 5 2 2 3 2 4 2 3 2 4 1 2 3 1 0 1 5 9 7 11 9 4 2 2 1 4 5 7 7 5 5 5 6 8
10 8 7 6 6 6 4 5 4 4 4 5 5 5 6 7 6 6 6 7 5 7 7 7 6 2 2 4 2 1 1 1 1 2 5 5 5 3 4 3 4 5 2 6 3 1 2 2 3 10 3 1 4 1 6 1 3 2 6 2 2 3 5 3 0 1 3 1 1 2 6 6 13 20 4 1 2 2 4 7 7 6 5 5 5 6 7 7
8 9 8 7 7 5 5 4 4 4 4 5 5 6 7 7 7 7 7 7 8 8 7 7 2 2 2 3 1 1 1 1 1 2 5 4 2 3 3 4 5 6 6 10 5 1 0 2 6 11 3 3 4 3 6 3 1 2 1 2 1 2 2 4 2 2 5 2 2 2 7 6 3 3 3 4 1 4 10 11 9 7 6 6 6 6 7 8
9 9 8 7 6 6 6 5 4 4 4 4 6 7 8 8 8 8 8 8 6 6 6 3 3 2 3 2 2 1 2 1 1 3 4 3 6 6 4 4 10 8 6 6 4 1 0 1 2 3 4 2 4 5 5 2 3 2 3 3 1 4 2 2 3 0 5 3 2 4 8 12 10 4 5 3 1 3 7 8 8 7 7 7 6 7 8 8
9 9 8 9 7 8 7 6 6 5 4 5 6 8 8 8 7 7 7 7 7 4 3 2 2 1 5 3 3 2 1 3 3 4 1 3 4 4 2 6 3 4 1 5 2 1 3 8 8 1 4 1 4 4 4 3 2 2 3 1 3 1 1 3 2 1 2 2 2 8 7 3 4 1 3 2 3 2 5 9 8 8 9 8 8 7 7 7
10 9 9 8 8 9 7 7 6 6 5 6 8 8 7 6 6 5 4 5 3 2 2 0 1 1 3 2 0 3 3 1 2 1 2 2 3 6 6 4 4 4 4 4 2 1 7 4 2 1 3 2 1 3 4 3 3 4 2 3 1 4 2 3 3 2 2 2 5 7 7 13 8 2 4 4 3 1 6 10 9 7 6 7 6 7 8 8
11 11 9 9 9 7 7 7 7 5 6 8 8 6 5 4 3 3 3 2 2 1 2 1 1 2 1 2 3 4 2 2 1 2 2 2 2 2 2 4 1 4 3 4 5 3 5 2 3 2 2 2 4 5 5 4 5 3 4 4 4 2 5 5 3 3 2 2 7 6 11 16 16 14 13 9 7 5 10 12 12 12 10 8 8 9 10 9
11 11 10 10 9 8 7 9 5 5 7 9 5 4 3 2 1 1 3 1 2 3 2 5 5 6 1 7 3 2 2 2 2 2 3 1 3 2 5 5 4 5 3 2 2 1 2 3 1 3 6 5 8 9 7 3 3 3 5 2 0 3 4 4 3 3 2 5 7 10 12 13 13 12 12 11 5 7 11 11 10 10 10 11 10 10 9 10
12 12 12 11 10 10 10 7 4 4 6 4 1 1 2 2 2 3 2 1 2 2 2 3 4 4 4 1 5 2 1 2 3 3 0 0 2 5 7 2 4 4 3 4 3 3 3 5 5 6 7 8 6 2 5 4 4 7 4 2 2 4 6 2 2 2 1 3 11 12 13 16 16 13 15 14 6 7 11 13 12 11 11 11 11 11 11 11
13 13 13 12 11 10 9 8 4 1 2 1 0 2 4 5 6 3 3 1 2 1 4 2 2 2 3 4 3 6 6 3 3 2 2 1 4 4 1 0 3 4 2 3 2 1 2 4 7 4 5 0 4 6 8 7 2 2 3 2 3 4 5 3 1 2 1 3 3 2 8 16 16 14 14 12 10 16 14 14 14 14 13 12 13 14 13 13
13 13 12 12 10 11 10 8 4 2 1 1 0 3 1 2 2 2 1 3 1 2 0 3 2 2 1 1 1 2 2 4 2 1 1 1 2 5 3 3 4 6 3 3 3 3 5 7 2 5 6 8 6 5 3 3 4 3 3 2 3 5 5 1 2 1 1 1 10 5 9 15 16 15 15 14 15 15 14 14 15 12 14 13 12 13 13 9
14 13 13 11 12 11 10 7 4 3 1 1 2 0 2 1 1 1 2 4 2 1 1 1 4 4 1 2 1 2 3 2 4 5 5 3 4 2 7 6 5 4 3 5 7 5 4 7 3 7 7 9 5 3 5 4 1 3 3 3 6 2 2 2 4 2 2 4 5 5 10 15 17 16 18 18 16 16 13 14 14 12 16 18 16 13 8 12
13 13 13 12 11 11 9 7 3 0 2 1 2 3 3 3 1 2 1 0 1 2 2 1 2 2 6 4 6 6 4 3 3 9 1 5 7 3 5 4 7 5 7 10 9 9 3 3 2 6 5 7 7 5 7 5 6 3 5 5 5 2 4 4 2 1 2 3 1 10 11 12 12 11 9 5 1 4 9 8 10 13 14 14 13 12 13 17
13 13 13 12 12 10 8 7 3 2 3 2 4 2 3 4 2 0 1 1 1 1 1 2 3 4 3 3 2 7 1 2 3 3 3 5 7 5 3 1 2 6 5 5 2 3 4 3 6 7 3 4 7 5 8 7 5 3 6 10 8 4 3 0 2 5 4 4 3 2 6 5 2 6 9 10 6 7 5 6 10 12 10 9 12 14 12 11
14 13 13 13 12 11 10 3 3 4 3 3 2 2 5 4 1 1 0 4 4 2 3 6 5 3 4 3 4 2 6 5 3 1 2 2 3 2 4 3 2 6 8 8 5 2 1 3 5 7 7 5 4 5 4 6 4 3 3 6 11 1 2 1 1 1 4 3 2 3 4 9 3 13 14 9 8 16 6 9 15 13 12 11 12 10 10 10
4 13 14 14 14 13 5 4 4 5 2 2 2 3 5 4 2 1 2 1 6 6 7 2 0 2 1 3 5 5 6 4 1 4 2 4 2 3 4 5 3 4 3 4 2 6 5 4 4 3 7 6 6 6 6 11 5 4 2 1 3 4 5 4 3 4 5 2 4 4 4 8 10 12 12 12 13 14 15 14 13 12 11 11 11 11 10 9
5 7 13 18 18 17 1 5 5 3 1 2 3 3 4 2 1 1 1 2 4 5 4 3 1 2 0 2 3 2 3 3 6 4 2 2 2 3 3 8 9 10 6 5 8 3 6 7 8 8 6 5 8 2 5 11 6 1 1 1 4 4 3 4 2 1 1 5 6 6 4 4 8 4 1 2 6 10 13 15 11 8 7 8 9 8 7 7
3 1 12 18 20 9 1 3 4 2 1 2 3 4 2 3 2 2 2 5 1 3 2 6 3 1 3 1 5 3 2 4 1 3 3 1 5 1 6 6 1 6 2 3 6 2 2 1 8 6 8 8 3 3 2 10 7 1 4 7 7 6 6 1 2 1 1 2 9 7 8 4 16 6 7 3 3 10 13 10 8 4 4 3 3 3 4 3
3 4 10 15 10 3 0 1 3 2 2 3 4 4 4 1 2 5 5 7 3 4 3 2 3 6 7 12 3 3 4 2 2 3 2 4 2 2 5 1 4 5 4 1 2 3 1 1 4 3 7 1 7 5 2 3 5 12 6 9 6 5 3 3 3 0 0 5 7 12 10 5 8 8 10 7 7 7 8 6 4 2 5 3 1 3 2 1
4 4 6 16 7 4 3 4 2 2 3 3 4 5 3 3 3 4 9 4 4 2 2 2 3 3 13 13 7 0 3 1 3 5 6 1 3 4 4 5 3 3 1 2 4 2 2 2 3 1 3 4 5 8 7 2 5 6 3 4 5 2 2 1 1 1 3 7 5 3 6 7 5 10 6 3 4 2 3 8 10 5 3 1 2 0 1 1
4 4 5 13 4 6 8 5 5 3 2 2 2 6 4 3 5 10 8 7 4 7 7 5 2 5 10 1 3 8 8 3 3 6 8 8 8 9 10 10 7 3 5 9 5 5 4 6 2 2 3 5 7 9 5 4 2 2 5 6 4 2 1 3 2 4 7 7 1 3 1 3 16 20 3 10 12 11 10 9 11 10 8 5 2 2 2 2
4 1 6 9 7 5 2 2 8 7 3 4 7 4 6 4 9 9 8 9 4 4 4 3 7 7 10 7 6 4 5 7 4 4 3 0 5 9 3 4 8 3 8 7 6 3 3 4 2 4 2 6 8 9 6 3 7 6 10 9 7 5 5 7 3 2 4 1 0 3 1 7 12 14 14 19 21 16 11 12 13 10 12 10 4 4 4 4
7 2 2 2 6 3 4 7 7 8 8 7 11 6 6 8 11 12 12 6 1 3 5 3 5 3 8 8 4 9 6 2 8 4 4 6 6 7 9 9 4 4 2 3 9 9 6 5 10 12 6 10 10 13 12 8 13 12 3 10 7 6 4 6 3 6 5 1 3 4 2 7 3 5 4 6 9 8 6 6 6 7 11 9 4 7 9 10
7 3 1 2 4 2 7 7 9 7 9 10 7 6 13 14 7 8 12 6 1 2 3 2 9 7 5 2 2 3 3 4 2 6 5 8 8 7 9 12 10 6 2 7 4 2 12 6 4 5 4 11 13 1 5 7 3 3 0 3 1 11 2 8 1 1 1 1 3 3 7 4 8 6 10 5 6 8 3 5 4 10 10 6 9 11 9 8
1 2 2 2 2 4 7 6 7 8 10 7 9 6 13 10 7 5 4 5 4 6 7 6 4 6 2 4 4 7 2 1 5 3 2 7 2 7 7 5 12 18 10 11 5 5 4 7 4 1 2 9 5 2 3 3 9 8 6 8 6 5 3 4 2 3 1 2 8 4 7 10 9 17 17 19 16 12 4 5 5 8 6 4 9 9 2 4
1 2 4 4 3 5 6 8 8 7 7 9 7 9 7 3 2 1 2 6 2 13 9 10 7 7 8 8 6 7 5 4 3 6 7 4 6 9 5 8 1 11 16 8 2 3 3 1 2 2 7 1 3 3 2 5 2 9 7 8 3 1 4 4 6 2 3 8 6 4 9 13 3 11 5 4 9 11 10 12 11 8 5 7 10 7 2 6
0 1 2 6 5 7 7 8 8 4 6 7 7 7 5 6 3 4 2 4 1 2 5 9 1 4 6 7 7 8 6 7 9 6 5 10 6 9 9 3 9 13 16 1 3 1 2 8 2 2 4 2 2 2 2 3 5 2 0 2 7 4 6 4 2 6 5 4 4 6 8 8 10 15 3 6 5 9 12 12 11 13 12 12 11 6 4 5
1 2 3 7 7 10 8 9 9 7 3 4 6 7 7 7 5 6 6 3 1 4 4 5 5 4 2 7 3 2 10 9 11 9 6 6 7 7 13 9 6 11 12 10 4 2 2 7 2 2 1 3 1 6 11 8 1 3 1 2 4 2 5 7 7 1 2 8 2 4 2 9 8 8 8 14 14 13 11 8 11 11 11 9 10 7 5 6
3 3 4 0 10 12 11 9 7 6 6 9 8 6 4 7 4 4 2 5 4 5 5 6 5 4 4 3 7 6 7 4 10 8 7 4 10 3 5 8 4 6 9 16 7 2 5 2 8 4 4 2 6 8 12 12 11 6 7 7 3 3 4 4 2 3 4 4 5 5 8 7 9 7 8 11 12 10 12 11 7 7 8 10 7 5 4 5
1 1 2 3 11 12 11 9 5 7 7 4 6 3 5 5 7 5 4 1 1 3 2 5 6 9 5 4 4 2 5 6 5 6 7 5 9 4 8 8 6 5 5 6 10 5 3 5 9 5 4 8 6 1 3 6 13 13 15 14 16 10 6 6 7 4 0 4 3 2 10 9 10 5 8 9 8 8 9 8 7 7 10 4 2 4 4 5
4 3 2 6 11 15 11 9 5 4 4 9 10 10 5 3 3 6 5 4 1 3 2 2 1 3 4 6 3 5 4 4 5 4 5 9 9 9 3 1 4 12 11 9 11 9 6 2 5 5 8 8 2 1 1 4 5 3 4 8 8 10 9 7 11 4 1 4 3 1 4 14 3 7 4 7 5 5 3 6 8 9 6 3 1 3 6 6
5 3 2 6 15 15 11 9 6 6 6 7 1 5 5 2 5 6 9 6 6 3 2 4 4 5 4 4 3 3 5 3 7 9 4 6 9 8 1 2 6 7 3 2 5 1 5 2 2 8 2 1 0 1 2 1 1 4 7 1 1 9 9 7 3 1 5 3 4 4 6 12 9 1 4 3 3 3 3 5 8 7 7 7 5 2 5 6
4 3 1 1 6 13 10 12 12 13 12 8 5 4 5 5 6 5 7 8 8 4 6 4 1 7 4 3 2 4 4 1 3 6 5 5 5 2 7 6 10 6 9 6 6 8 5 2 6 4 4 2 2 1 3 2 2 4 5 5 7 5 5 1 3 0 3 7 8 6 12 14 0 2 1 3 5 5 8 6 5 8 7 7 6 4 3 6
2 1 2 2 2 7 13 5 8 10 13 14 10 13 10 7 4 11 11 8 4 3 5 7 9 6 5 3 6 4 4 10 3 5 9 2 4 3 1 6 11 8 7 3 4 6 3 4 7 7 10 10 9 9 10 7 8 5 4 8 11 13 10 5 7 6 10 7 13 11 13 17 12 4 3 4 5 6 7 7 5 8 10 6 5 5 5 6
4 4 3 2 2 4 3 2 2 8 13 12 11 12 12 11 2 5 10 9 11 6 8 2 4 8 8 8 8 9 11 10 12 2 6 7 6 2 3 6 10 8 7 8 8 7 2 1 6 11 12 13 12 4 5 8 4 7 9 12 11 13 14 10 4 6 12 15 13 12 16 20 23 12 6 8 5 8 9 7 7 8 8 8 6 5 4 4
2 3 5 6 0 2 2 2 4 4 9 12 9 8 15 16 10 2 9 7 10 11 7 10 5 9 7 11 11 11 12 10 11 9 9 11 1 3 2 4 5 7 4 5 6 5 2 3 10 12 13 15 12 9 3 6 9 11 13 12 13 13 12 14 13 16 15 9 17 15 18 17 24 24 17 11 5 7 7 6 6 6 7 6 3 2 5 6
6 4 3 3 1 7 9 9 10 9 5 6 7 7 13 15 14 10 6 9 7 13 9 6 11 15 13 15 11 9 11 12 10 12 11 11 9 2 1 2 5 5 9 2 1 4 6 8 11 8 12 16 18 15 4 6 6 7 12 12 13 14 13 15 19 21 19 15 18 14 12 19 21 25 19 18 10 10 7 8 7 4 5 5 4 5 7 8
1 2 1 1 4 3 5 2 13 11 11 7 2 6 11 15 17 14 7 7 8 7 15 11 15 17 17 15 13 11 12 7 10 11 8 6 10 7 4 2 4 3 5 2 2 1 2 4 8 10 14 15 15 17 12 11 10 8 8 11 10 13 18 20 21 23 23 19 16 17 19 24 23 24 21 12 7 9 10 7 4 2 6 7 7 8 9 8
8 5 4 1 1 2 2 4 9 11 10 11 6 8 7 11 14 12 9 10 9 12 12 17 14 14 14 14 15 15 15 14 10 11 11 13 5 7 7 8 2 3 2 6 5 3 6 8 12 7 7 14 20 19 18 16 14 19 15 8 8 12 16 20 21 19 15 18 19 22 24 24 22 23 16 11 7 3 6 9 9 8 9 10 10 11 11 11
2 4 2 5 5 4 2 2 7 8 7 9 9 7 8 11 13 11 6 5 12 10 12 18 17 12 11 16 16 17 15 14 15 16 10 12 12 9 8 3 10 4 4 4 3 2 9 4 4 6 9 11 16 17 19 15 11 12 14 15 15 20 22 20 16 12 15 19 22 19 19 20 24 16 9 15 4 8 12 11 11 11 12 12 13 13 12 12
2 2 2 1 4 5 6 2 2 6 9 9 11 13 8 10 8 5 4 4 5 8 9 11 10 8 14 14 18 19 13 12 14 12 13 11 12 9 11 9 12 10 5 8 2 3 8 5 6 6 11 12 14 10 14 10 6 9 14 23 26 23 16 11 13 19 23 19 15 14 18 19 20 15 9 14 9 9 12 11 11 16 19 18 16 16 14 14
Wind_Direction
160 160 140 145 133 136 128 116 116 97 107 83 61 50 43 31 23 14 4 352 353 351 339 340 340 335 341 340 341 346 323 178 143 117 111 58 336 314 307 305 303 308 1 225 127 167 162 62 112 342 129 35 359 159 336 57 10 250 196 205 206 107 195 159 194 189 19 223 167 178 192 196 184 166 150 176 191 248 125 230 173 202 232 120 98 53 120 135
166 157 153 138 134 126 122 111 103 101 83 86 64 32 27 24 12 3 353 345 344 343 336 332 335 337 339 340 343 338 316 152 101 80 45 20 325 316 308 298 308 315 231 234 177 188 169 126 89 163 154 107 288 55 250 80 302 202 115 225 237 165 122 175 188 161 203 65 157 161 175 230 175 167 156 216 191 186 223 226 211 232 208 157 146 134 155 155
167 161 151 139 133 131 134 126 99 102 81 59 58 32 11 360 355 350 342 344 339 333 329 327 330 336 339 339 338 328 269 86 160 48 76 2 326 318 312 309 307 330 264 282 236 169 197 142 145 137 35 120 358 109 269 48 308 56 240 210 230 145 96 229 176 164 305 316 159 159 168 231 108 195 118 224 187 162 230 220 187 229 224 191 163 156 158 170
170 162 148 141 132 129 136 102 99 80 55 30 28 24 345 332 343 340 334 336 337 327 325 323 326 336 339 339 346 278 240 134 132 121 54 334 327 320 319 319 307 277 280 45 74 101 84 99 110 166 120 90 101 275 174 38 261 120 227 236 67 86 193 127 208 92 42 320 169 148 116 206 169 182 190 196 234 233 239 238 238 224 229 167 159 161 164 174
161 162 154 149 138 149 118 116 123 100 111 352 26 342 322 317 332 324 332 330 329 328 320 321 327 332 339 344 336 232 162 212 143 301 31 331 331 326 327 330 332 246 194 133 118 77 124 110 134 44 53 124 76 113 46 56 359 144 18 16 53 125 153 63 192 37 300 329 182 135 168 194 94 179 217 209 228 236 227 231 218 250 78 147 164 170 169 178
183 177 170 161 158 144 138 144 119 137 137 104 11 312 307 331 319 322 320 325 325 323 322 322 327 335 336 338 248 215 231 210 71 79 338 334 324 333 331 17 17 27 139 80 91 91 182 107 176 131 113 128 5 166 87 352 349 175 112 208 153 12 29 52 50 210 226 194 179 181 183 95 182 207 205 234 234 236 66 57 39 40 69 87 164 158 178 182
189 182 181 173 163 152 152 135 128 112 71 74 29 348 336 335 329 313 314 314 318 319 322 324 330 334 336 304 230 225 76 40 241 100 3 331 321 325 22 83 124 210 238 174 78 180 27 121 131 112 107 81 30 87 58 286 237 295 126 149 132 194 13 28 355 97 205 257 211 35 47 208 161 229 102 232 239 235 102 68 48 46 94 157 168 182 186 190
198 196 189 192 185 175 165 153 150 141 104 23 342 327 329 321 325 309 313 310 314 317 322 327 332 337 335 192 214 87 51 85 59 94 334 327 316 332 179 287 80 205 67 44 48 126 152 135 150 186 71 148 146 145 127 153 45 147 131 189 110 169 24 50 138 155 248 248 3 230 199 190 223 285 7 245 242 241 199 145 202 129 158 178 198 193 200 200
200 201 199 198 202 200 194 194 200 214 267 43 298 314 329 330 311 321 303 310 309 320 319 328 338 336 307 265 146 147 129 59 24 337 326 324 331 41 166 205 358 133 115 82 351 79 210 125 110 232 160 132 210 128 231 213 133 346 80 129 128 106 91 90 125 145 199 133 203 189 210 90 272 301 261 255 251 89 38 231 198 200 208 199 207 203 202 206
199 203 203 201 207 201 204 204 218 227 260 293 302 304 317 328 321 314 315 301 306 309 317 328 339 340 290 155 67 204 101 297 335 317 318 282 257 144 65 52 314 117 145 11 58 58 233 162 203 161 109 69 187 77 296 301 67 64 105 82 90 52 120 139 216 131 245 219 198 233 221 162 127 239 262 97 30 339 227 220 177 218 232 221 212 210 213 216
196 200 201 207 204 211 202 207 226 247 264 296 306 306 319 319 324 313 313 304 299 301 310 326 340 312 261 223 190 163 70 214 12 327 307 266 135 57 31 346 329 90 103 75 62 352 23 116 130 123 300 113 151 68 4 71 133 59 111 136 87 79 60 66 99 69 258 153 262 269 265 71 135 183 247 99 49 18 242 224 224 227 237 231 219 223 222 227
198 199 199 204 209 216 227 228 240 263 278 294 296 310 311 316 313 320 309 308 298 298 305 320 330 323 257 74 144 65 315 355 356 4 331 277 61 27 315 331 296 188 195 108 56 31 289 127 175 271 142 209 120 144 79 182 55 92 256 169 55 117 184 44 281 11 320 158 81 335 270 242 182 234 233 80 43 48 298 265 242 242 246 239 232 229 227 226
198 201 204 203 211 221 229 244 257 270 284 287 297 302 309 310 310 310 310 302 298 298 308 314 319 262 244 158 74 295 301 332 323 313 52 46 109 88 74 26 50 40 358 112 100 36 94 126 256 92 33 151 113 336 119 130 67 180 70 357 152 190 230 90 137 9 259 114 353 252 256 230 213 230 168 114 29 353 280 256 245 244 242 246 237 236 236 223
196 206 208 205 213 217 225 237 259 279 286 291 297 303 309 306 300 298 299 287 297 302 312 316 324 267 233 76 79 355 307 29 216 272 3 302 267 68 85 53 49 53 25 85 77 101 356 242 96 102 61 48 116 208 149 81 305 167 57 262 336 217 202 87 38 15 237 91 232 258 255 261 173 217 66 53 41 247 260 258 251 248 250 248 244 247 247 234
196 203 211 216 218 232 245 259 269 290 287 290 296 302 303 302 299 297 292 294 290 305 314 321 240 222 171 83 306 55 72 246 35 5 352 313 131 104 66 69 53 48 59 81 110 90 131 259 125 83 77 292 121 169 91 100 55 47 192 187 157 240 133 87 86 85 245 110 247 215 260 262 279 269 84 60 174 200 251 260 259 254 253 253 256 252 252 248
191 198 208 216 221 232 240 249 261 276 292 299 299 297 295 293 300 295 291 288 306 321 234 233 55 323 136 178 114 128 214 184 127 336 334 301 308 110 121 101 134 70 167 59 71 189 50 61 61 29 118 178 180 144 124 151 149 51 265 127 185 227 291 280 126 25 359 300 202 232 266 10 259 65 84 89 133 190 261 272 266 257 254 255 251 250 251 258
191 195 207 211 219 232 240 251 258 269 295 309 304 290 282 283 299 307 301 303 305 220 240 292 116 295 243 64 266 219 134 51 325 333 345 25 280 139 137 81 56 76 62 132 57 190 19 65 294 209 12 81 6 160 167 222 222 202 62 246 91 234 170 234 103 142 7 261 218 217 249 249 267 251 184 174 166 222 274 276 273 260 251 247 252 252 251 249
193 197 199 211 221 229 239 249 254 288 311 310 301 285 282 300 335 224 222 222 243 231 170 149 228 208 172 282 192 156 71 288 29 341 301 355 3 66 60 112 218 79 62 97 20 38 340 89 281 107 121 138 172 183 205 210 209 203 177 222 208 212 243 299 284 90 266 179 258 235 243 258 260 269 275 267 155 235 263 264 269 275 272 264 250 251 250 248
194 194 200 206 213 222 232 246 262 303 321 310 295 275 243 268 218 253 71 347 187 148 178 178 186 197 154 155 57 98 226 57 242 253 108 21 22 101 79 59 77 143 111 215 52 308 19 101 237 152 196 174 194 198 210 79 97 148 184 189 282 232 183 214 241 81 298 243 241 240 254 262 259 257 257 262 187 242 260 267 265 262 261 259 254 252 248 243
192 196 199 201 206 212 226 245 269 299 327 319 25 158 154 165 159 145 83 198 291 350 342 78 76 71 92 60 135 52 279 217 167 24 312 248 233 120 49 4 79 59 145 197 114 67 321 186 201 209 215 196 189 170 73 90 80 89 87 148 232 261 268 134 255 44 250 281 255 258 265 271 272 267 269 269 245 234 253 259 257 253 253 253 253 250 247 245
192 197 198 196 200 209 220 234 246 299 359 8 360 200 184 177 147 185 170 274 84 330 18 42 25 43 67 100 126 169 134 66 4 93 98 24 285 190 93 191 128 171 44 345 83 58 247 224 228 225 56 89 120 115 113 95 38 137 144 233 226 192 273 96 95 48 126 250 286 120 289 278 276 272 266 264 255 260 247 248 249 251 249 250 249 252 248 250
195 195 191 197 193 205 215 221 202 117 18 254 180 220 336 244 11 355 109 190 147 41 5 90 228 95 336 293 31 313 337 102 101 129 100 238 76 209 145 193 166 199 109 137 132 151 200 213 202 92 109 92 97 134 145 177 151 108 253 179 288 250 272 180 7 117 162 191 273 317 292 282 283 280 272 259 255 258 253 246 254 261 262 257 252 247 253 256
194 194 190 185 193 203 209 210 202 156 268 228 165 184 228 96 324 250 250 83 163 63 177 139 190 174 115 347 220 222 189 168 169 197 193 220 114 290 138 170 175 108 140 195 192 168 213 240 150 128 134 115 88 122 143 119 152 195 169 206 242 51 326 274 124 34 148 242 311 334 305 285 282 271 263 258 242 251 256 253 257 252 257 257 257 260 263 258
195 192 187 184 180 201 197 194 167 170 36 189 163 203 101 141 131 188 214 248 298 238 205 208 296 150 180 167 174 169 200 176 136 186 93 192 161 126 163 157 119 155 186 189 210 200 199 55 43 136 155 158 139 157 165 180 209 211 224 229 257 207 212 259 32 293 162 239 309 290 278 269 257 269 275 259 160 283 264 265 257 252 247 256 268 271 255 257
193 190 186 178 177 180 178 142 210 220 149 141 259 234 174 165 150 233 254 132 207 241 109 287 174 233 150 49 132 193 174 67 260 15 137 196 129 154 141 49 177 197 171 146 51 267 246 114 137 124 114 99 126 161 196 183 230 194 225 226 239 246 254 134 329 327 266 243 124 301 305 259 165 250 262 277 289 262 208 226 249 248 242 235 248 249 254 241
194 188 183 174 168 166 147 191 223 166 195 203 180 142 167 171 226 268 102 72 262 135 43 208 153 180 121 116 107 164 97 217 22 332 91 338 353 97 123 146 331 199 153 159 199 257 237 118 175 150 155 152 176 189 179 202 213 213 228 209 236 227 69 90 255 286 266 276 79 271 265 281 311 282 267 261 265 272 233 234 257 254 253 244 242 244 242 243
194 190 181 163 161 148 151 235 103 159 182 199 125 151 163 174 220 268 199 64 281 173 163 20 262 155 14 117 161 129 205 172 136 96 106 5 189 1 206 145 122 33 120 142 28 221 132 157 129 126 138 163 168 205 191 193 178 216 54 141 152 178 212 221 212 233 279 336 220 187 234 273 284 264 261 259 264 276 288 268 246 245 243 241 246 248 246 248
27 191 174 163 164 172 300 119 146 206 305 78 112 134 146 169 172 269 255 218 257 104 149 210 280 339 130 112 12 218 9 62 146 192 1 304 264 114 304 176 186 174 169 167 220 57 178 161 181 163 177 176 203 176 134 185 197 35 77 228 144 169 172 149 204 214 334 353 282 151 176 268 255 193 98 128 258 265 264 267 270 259 246 240 249 249 252 253
4 144 171 166 176 173 63 155 178 200 69 130 137 131 117 128 265 125 147 225 90 74 4 103 289 103 64 163 90 70 124 15 354 65 304 7 25 266 204 184 227 114 66 251 243 118 328 243 202 178 166 203 118 18 218 176 195 157 131 94 89 86 71 100 126 170 242 285 267 146 188 253 284 211 190 137 259 272 264 267 271 283 285 254 242 251 253 262
42 354 178 172 156 110 129 3 249 289 126 143 155 134 98 226 180 184 106 237 105 191 49 91 192 173 163 152 172 31 154 36 58 134 55 160 77 55 29 317 122 131 191 77 359 38 11 251 332 194 216 106 113 55 24 2 48 128 174 106 86 69 82 75 56 16 295 248 257 145 186 251 294 274 166 173 199 213 253 274 261 224 280 259 266 273 274 275
352 33 192 166 177 174 129 203 206 208 163 155 189 108 110 43 210 141 212 195 36 85 88 154 147 116 152 156 182 8 77 18 142 166 131 163 114 56 159 97 73 98 78 297 242 125 153 77 178 243 48 111 112 90 44 52 140 155 152 134 130 114 122 131 99 144 224 258 95 112 182 224 217 286 134 88 25 314 277 276 282 266 221 256 99 235 233 219
329 323 168 178 158 138 183 209 151 152 166 203 75 89 126 181 348 200 225 72 264 168 175 157 25 177 169 25 50 164 156 72 161 184 160 173 163 174 195 191 153 172 241 209 220 83 234 209 117 96 264 147 148 100 72 94 249 239 143 157 190 201 129 217 165 215 197 239 41 353 147 259 233 247 348 302 280 264 239 250 264 273 281 248 184 213 206 245
283 343 170 182 134 194 259 101 130 142 133 78 77 42 133 153 216 211 235 144 246 98 186 48 154 175 167 146 187 126 3 176 155 199 90 316 185 211 218 241 190 183 233 180 189 144 237 81 176 153 122 245 189 157 136 160 204 200 182 179 187 211 210 250 196 357 320 265 283 29 272 253 279 297 269 263 267 268 256 232 238 252 264 268 227 218 227 220
328 254 90 187 182 169 133 138 145 139 106 87 98 74 55 175 227 198 210 199 340 357 57 101 108 59 169 175 162 162 166 330 168 169 205 159 193 204 216 232 201 223 96 88 198 186 235 229 210 148 222 158 209 210 176 166 172 200 204 182 205 184 189 217 175 223 237 5 72 298 158 243 221 196 33 268 285 298 294 293 291 268 262 271 272 254 250 254
323 277 152 86 174 124 147 157 149 149 115 121 118 162 172 205 216 184 206 164 103 35 72 331 137 136 198 354 345 271 339 152 194 130 182 161 201 214 188 204 206 192 105 207 209 160 222 263 47 174 5 150 193 228 84 94 110 163 305 13 298 228 76 252 8 267 93 145 181 207 229 252 228 5 308 267 267 284 251 270 259 268 265 271 275 255 229 237
304 278 259 219 216 163 157 164 154 138 125 115 122 174 199 195 192 177 217 93 123 145 128 101 79 162 167 179 7 201 353 357 168 164 223 222 322 209 206 199 189 189 171 202 137 191 67 240 74 348 76 191 183 70 182 162 206 173 146 212 210 5 146 85 96 76 73 324 257 176 264 259 277 280 247 247 255 255 244 260 253 260 257 254 259 258 162 229
151 113 180 217 229 164 165 157 158 154 144 144 142 192 215 340 272 294 359 172 161 134 157 154 202 177 174 202 182 188 194 111 161 188 201 133 267 225 223 233 157 193 207 195 198 274 214 190 25 135 200 250 48 299 49 24 356 107 213 205 76 21 4 188 235 131 202 239 256 139 230 262 265 279 53 301 258 262 270 265 259 258 256 255 248 255 194 222
317 171 263 217 192 165 164 155 146 149 148 164 185 192 128 216 208 212 78 113 23 228 162 202 123 178 193 176 190 171 190 203 167 190 204 166 244 169 180 218 182 204 210 321 242 157 143 255 134 339 3 55 18 208 192 65 358 310 271 77 181 196 211 181 227 229 218 216 252 226 236 256 239 256 252 254 204 243 247 248 253 258 253 242 257 246 202 213
250 178 230 211 171 166 153 153 141 149 132 190 207 215 197 229 112 191 177 188 215 102 189 221 202 201 158 192 103 103 156 190 156 189 173 188 228 171 194 175 220 205 195 173 217 124 196 233 211 9 167 33 194 185 206 178 78 58 60 169 9 319 237 174 203 298 227 248 171 255 188 259 201 227 231 246 249 235 239 236 240 244 250 263 260 252 226 211
184 140 247 205 161 158 147 151 151 147 165 204 199 228 121 184 181 202 183 191 170 169 209 186 216 177 181 197 153 160 213 213 167 194 211 159 217 92 202 180 192 139 180 188 195 102 204 132 253 87 306 192 181 202 217 165 171 182 199 199 176 214 359 333 344 205 221 239 231 273 279 260 254 177 185 223 233 227 223 230 236 240 247 248 264 278 253 244
261 217 230 136 159 148 140 153 162 171 190 247 240 199 141 186 169 197 166 314 94 344 161 168 170 205 162 131 226 201 157 183 186 192 206 216 201 235 193 191 154 120 134 167 207 182 200 159 230 126 174 211 220 143 257 200 188 182 186 196 195 169 182 199 235 94 251 232 225 173 252 272 263 131 198 221 227 226 221 226 234 245 248 292 325 270 259 250
180 171 212 168 160 152 150 174 210 172 213 212 216 203 195 117 118 169 161 213 348 157 325 92 356 144 132 191 153 159 146 177 187 213 224 229 201 229 25 298 162 143 147 176 199 193 191 136 215 195 206 208 116 44 342 322 321 296 250 228 205 207 195 189 228 176 52 241 34 277 313 260 233 172 176 220 230 227 254 217 230 250 275 299 190 246 239 249
200 202 52 173 169 167 166 203 172 196 216 229 136 53 115 162 171 174 176 185 207 174 153 198 197 175 248 166 165 135 173 184 179 199 205 229 260 223 56 145 126 165 87 107 44 218 85 198 209 252 67 338 57 74 80 28 25 257 248 137 146 218 209 229 268 120 203 143 221 215 231 268 258 77 244 324 328 330 290 250 247 249 257 270 264 191 247 233
183 229 247 311 196 179 177 194 199 206 217 226 191 213 208 211 159 146 193 185 190 159 199 174 32 229 242 115 113 168 164 192 243 225 258 225 262 76 149 145 165 183 188 197 195 151 171 222 219 228 244 199 206 150 224 94 202 235 237 173 221 231 202 107 75 207 253 197 223 204 240 248 142 201 86 255 261 255 252 231 219 264 249 231 245 235 217 260
164 319 306 294 14 204 197 197 208 200 214 217 193 211 210 210 195 182 181 185 168 162 156 213 207 170 207 139 195 160 182 192 251 225 245 273 244 68 304 172 188 200 218 19 54 155 147 173 167 212 221 228 218 208 218 188 197 198 224 218 201 202 179 134 227 200 240 202 215 224 248 260 253 118 217 205 235 260 262 249 222 233 268 258 220 225 216 212
189 173 219 276 138 45 337 38 12 215 213 211 213 222 220 222 171 229 194 205 185 195 211 117 153 170 191 172 195 196 213 203 199 227 184 238 232 206 205 198 197 204 204 141 148 141 178 277 208 203 215 231 240 253 20 104 123 187 218 196 197 204 197 201 222 216 219 235 236 226 236 255 263 241 200 219 199 233 245 228 222 236 244 253 241 247 269 274
206 194 168 192 26 238 196 176 210 195 217 197 215 181 219 222 209 193 196 218 198 203 212 214 163 176 196 197 203 214 208 204 213 229 212 232 117 199 101 188 227 257 121 129 152 108 91 214 227 238 244 253 266 291 139 172 178 205 211 206 199 192 195 200 208 225 219 232 250 236 227 244 260 264 252 236 199 240 248 272 272 264 258 259 264 251 256 258
206 224 204 263 168 188 188 221 200 213 217 195 215 202 221 217 215 218 176 232 181 201 209 207 209 204 192 193 197 219 203 215 198 222 233 238 256 266 244 130 197 192 154 174 242 155 157 217 228 226 251 258 265 271 144 231 238 220 216 205 197 194 188 203 221 231 223 221 238 250 245 244 253 261 258 251 233 226 217 240 249 276 307 279 250 230 229 239
284 356 264 278 178 284 232 199 178 194 204 169 180 225 222 216 219 210 189 184 207 203 204 223 210 210 213 203 204 222 200 204 218 217 219 215 223 216 234 339 254 99 151 105 145 175 103 237 242 211 239 251 258 261 250 230 245 252 234 233 210 186 197 204 219 223 225 233 244 258 263 254 254 260 259 260 254 228 234 215 209 289 278 296 287 267 247 233
192 178 186 85 355 41 151 133 163 177 209 195 196 209 210 213 220 209 200 196 207 211 199 224 221 203 211 216 214 222 218 213 207 219 215 223 233 194 232 210 113 352 140 167 160 254 160 227 207 216 233 248 249 249 251 240 245 256 253 237 225 222 216 211 221 231 233 244 245 244 248 260 257 252 269 268 253 214 233 221 225 226 226 226 231 236 241 249
170 186 153 137 195 200 179 139 160 177 187 194 212 202 212 210 221 205 206 204 212 206 196 219 227 225 210 221 224 231 225 223 221 231 216 200 228 198 199 235 186 185 174 173 162 222 179 244 146 178 226 242 245 241 245 246 237 246 255 247 234 232 233 231 232 228 227 231 234 242 251 256 261 260 237 266 205 210 223 219 222 231 234 238 245 246 243 245
82 16 101 188 210 190 177 175 119 148 208 193 197 203 195 209 219 167 249 222 236 247 239 232 238 247 231 222 229 231 242 255 252 244 240 231 229 232 205 211 195 188 172 194 140 176 184 186 200 180 216 236 244 222 238 246 227 232 236 239 232 231 232 238 231 229 232 233 243 239 236 241 256 268 264 252 226 230 230 222 221 232 237 236 233 236 237 239